{"data":{"norad_id":59137,"intl_designator":"2024-043AR","name":"VSP RF B1","alt_names":[],"object_type":"PAYLOAD","status":"ACTIVE","operator":null,"country":"BEL","launch_date":"2024-03-04","launch_site_code":"AFWTR","launch_vehicle":null,"mission":null,"orbit_class":"UNKNOWN","rcs_meters":null,"size_class":null,"mass_kg":null,"dimensions":null,"purposes":[],"wikipedia_slug":null,"has_3d_model":false,"image_url":null,"decayed_at":null,"tle_current":{"epoch":"2026-05-25T03:38:04.518816Z","epoch_age_seconds":68845,"freshness":"FRESH","line1":"1 59137U 24043AR  26145.15144119  .00003567  00000+0  13575-3 0  9996","line2":"2 59137  97.5584 281.8158 0009808 324.5618  35.4967 15.27395419123503","mean_motion":15.27395419,"eccentricity":0.0009808,"inclination_deg":97.5584,"raan_deg":281.8158,"arg_perigee_deg":324.5618,"mean_anomaly_deg":35.4967,"bstar":0.00013575,"rev_number":12350,"period_min":94.278140557917,"perigee_km":476.87186014821,"apogee_km":490.33184708346,"semimajor_km":6861.7388536158,"source":"CELESTRAK","updated_at":"2026-05-25T13:38:01.198840Z"}}}